Location: Alsip
(41.6689°N, 87.7387°W)
Time: 14:26:35
(UTC+00:00)

Cosmos 1656 Rocket - Pass Details

Date: 14 July 2020
Orbit: 797 x 845 km, 71.1° (Epoch: 04 August)

Event Time Altitude Azimuth Distance (km) Brightness Sun altitude
Rises 05:34:27 0° 334° (NNW) 3,310 7.9 -26.5°
Reaches altitude 10° 05:36:51 10° 333° (NNW) 2,379 6.9 -26.6°
Maximum altitude 05:42:17 78° 249° (WSW) 825 3.5 -26.6°
Enters shadow 05:42:18 78° 246° (WSW) 825 3.5 -26.6°
